This is the latest recevied weather packets stored in our database for station/object KB0BS-13. If no packets are shown the sender has not sent any weather packets the latest 10 day(s).
| Time | Temp. | Humidity | Pressure | Rain* | Wind** | Luminosity | Snow |
|---|---|---|---|---|---|---|---|
| 1778072994 | 2.22° C | 76% | 1012.5 hPa | 0 mm | - | 115 W/m² | - |
| 1778072690 | 2.22° C | 77% | 1012.6 hPa | 0 mm | - | 105 W/m² | - |
| 1778072388 | 2.22° C | 77% | 1012.6 hPa | 0 mm | - | 104 W/m² | - |
| 1778072086 | 2.22° C | 78% | 1012.7 hPa | 0 mm | - | 95 W/m² | - |
| 1778071784 | 2.22° C | 79% | 1012.5 hPa | 0 mm | - | 90 W/m² | - |
| 1778071481 | 1.67° C | 79% | 1012.5 hPa | 0 mm | - | 90 W/m² | - |
| 1778071179 | 1.67° C | 79% | 1012.4 hPa | 0 mm | - | 88 W/m² | - |
| 1778070877 | 1.67° C | 79% | 1012.3 hPa | 0 mm | - | 86 W/m² | - |
| 1778070574 | 1.67° C | 79% | 1012.4 hPa | 0 mm | - | 80 W/m² | - |
| 1778070271 | 1.67° C | 80% | 1012.2 hPa | 0 mm | - | 75 W/m² | - |
| 1778069970 | 1.11° C | 79% | 1012.1 hPa | 0 mm | - | 65 W/m² | - |
| 1778069666 | 1.11° C | 80% | 1012.1 hPa | 0 mm | - | 62 W/m² | - |
| 1778069363 | 1.11° C | 82% | 1012 hPa | 0 mm | - | 55 W/m² | - |
| 1778069061 | 1.11° C | 80% | 1011.8 hPa | 0 mm | - | 55 W/m² | - |
| 1778068757 | 1.11° C | 80% | 1011.8 hPa | 0 mm | - | 49 W/m² | - |
| 1778068456 | 1.11° C | 81% | 1011.9 hPa | 0 mm | - | 47 W/m² | - |
| 1778068154 | 1.11° C | 81% | 1011.8 hPa | 0 mm | - | 45 W/m² | - |
| 1778067851 | 1.11° C | 82% | 1011.9 hPa | 0 mm | - | 40 W/m² | - |
| 1778067550 | 0.56° C | 81% | 1011.9 hPa | 0 mm | - | 38 W/m² | - |
| 1778067247 | 0.56° C | 82% | 1011.8 hPa | 0 mm | - | 35 W/m² | - |
| 1778066944 | 0.56° C | 83% | 1011.9 hPa | 0 mm | - | 32 W/m² | - |
| 1778066641 | 0.56° C | 83% | 1011.8 hPa | 0 mm | - | 29 W/m² | - |
| 1778066338 | 0.56° C | 84% | 1011.5 hPa | 0 mm | - | 28 W/m² | - |
| 1778066036 | 0.56° C | 83% | 1011.7 hPa | 0 mm | - | 26 W/m² | - |
| 1778065733 | 0.56° C | 83% | 1011.4 hPa | 0 mm | - | 23 W/m² | - |
* Rain latest hour (hover to see other rain measurements)
** Current wind speed in m/s (hover to see current wind gust speed)